Jaipur, India

6:08 AM IST on May 25, 2017 (GMT +0530)
Jaipur

Weather History for VIJP - December, 2012

Change the Weather History Date:

Sunday, December 30, 2012

  Actual Average Record
Temperature  
Mean Temperature 58 °F -  
Max Temperature 70 °F - - ()
Min Temperature 47 °F - - ()
Degree Days  
Heating Degree Days 6    
Growing Degree Days 8 (Base 50)    
Moisture  
Dew Point 44 °F    
Average Humidity 56    
Maximum Humidity 76    
Minimum Humidity 33    
Precipitation  
Precipitation 0.00 in - - ()
Sea Level Pressure  
Sea Level Pressure 29.99 in    
Wind  
Wind Speed 2 mph ()    
Max Wind Speed 7 mph    
Max Gust Speed -    
Visibility 1.2 miles    
Events      
T = Trace of Precipitation, MM = Missing Value Source: Averaged Metar Reports

Daily Weather History Graph

Daily Weather History Graph

Search for Another Location

Airport or City:

Trip Planner

Search our weather history database for the weather conditions in past years. The results will help you decide how hot, cold, wet, or windy it might be!

Date:

Astronomy

Dec. 30, 2012 Rise Set
Actual Time 7:15 AM IST 5:43 PM IST
Civil Twilight 6:49 AM IST 6:09 PM IST
Nautical Twilight 6:20 AM IST 6:38 PM IST
Astronomical Twilight 5:52 AM IST 7:06 PM IST
Moon 7:36 PM IST (12/30) 8:18 AM IST (12/30)
Length of Visible Light 11h 19m
Length of Day
10h 28m
Full, 97% of the Moon is Illuminated
Dec 30
Full
Jan 5
Last Quarter
Jan 12
New
Jan 19
First Quarter
Jan 27
Full

Hourly Weather History & Observations

Time (IST) Temp. Dew Point Humidity Pressure Visibility Wind Dir Wind Speed Gust Speed Precip Events Conditions
12:00 AM 55.4 °F 42.8 °F 63% 29.98 in 1.2 mi Variable 4.6 mph - N/A   Smoke
1:00 AM 55.4 °F 42.8 °F 63% 29.98 in 1.2 mi NNE 3.5 mph - N/A   Smoke
2:00 AM 53.6 °F 42.8 °F 67% 29.98 in 1.2 mi Variable 2.3 mph - N/A   Smoke
2:30 AM 53 °F 47 °F 74% 29.96 in 1 mi Calm Calm - -   Smoke
3:00 AM 51.8 °F 42.8 °F 71% 29.98 in 1.2 mi Calm Calm - N/A   Smoke
4:00 AM 50.0 °F 42.8 °F 76% 29.95 in 1.2 mi Variable 1.2 mph - N/A   Smoke
5:00 AM 51.8 °F 41.0 °F 67% 29.95 in 1.2 mi NNE 4.6 mph - N/A   Smoke
7:00 AM 48.2 °F 39.2 °F 71% 29.98 in 1.2 mi Variable 1.2 mph - N/A   Smoke
8:00 AM 48.2 °F 37.4 °F 66% 30.01 in 1.2 mi Calm Calm - N/A   Smoke
8:30 AM 50 °F 40 °F 59% 30.02 in 1 mi Calm Calm - -   Smoke
8:30 AM 51.8 °F 39.2 °F 62% 30.04 in 1.2 mi Calm Calm - N/A   Smoke
9:00 AM 55.4 °F 39.2 °F 54% 30.04 in 1.2 mi Calm Calm - N/A   Smoke
10:00 AM 60.8 °F 41.0 °F 48% 30.04 in 1.6 mi Variable 2.3 mph - N/A   Smoke
10:30 AM 60.8 °F 41.0 °F 48% 30.04 in 1.6 mi East 4.6 mph - N/A   Smoke
11:00 AM 62.6 °F 44.6 °F 52% 30.04 in 1.2 mi East 5.8 mph - N/A   Smoke
11:30 AM 64 °F 45 °F 39% 29.99 in 1 mi ESE 6.9 mph - -   Smoke
11:30 AM 64.4 °F 44.6 °F 49% 30.04 in 1.2 mi ESE 6.9 mph - N/A   Smoke
12:00 PM 66.2 °F 44.6 °F 46% 30.04 in 1.2 mi Variable 4.6 mph - N/A   Smoke
1:00 PM 66.2 °F 44.6 °F 46% 29.98 in 1.2 mi Variable 3.5 mph - N/A   Smoke
2:00 PM 68.0 °F 44.6 °F 43% 29.95 in 1.2 mi South 3.5 mph - N/A   Smoke
2:30 PM 68 °F 45 °F 33% 29.91 in 1 mi SSW 3.5 mph - -   Smoke
3:00 PM 68.0 °F 46.4 °F 46% 29.95 in 1.2 mi Calm Calm - N/A   Smoke
4:00 PM 66.2 °F 46.4 °F 49% 29.95 in 1.6 mi South 3.5 mph - N/A   Haze
5:30 PM 66 °F 47 °F 39% 29.91 in 1 mi NW 4.6 mph - -   Haze
6:00 PM 64.4 °F 46.4 °F 52% 29.95 in 1.2 mi NNW 4.6 mph - N/A   Smoke
7:00 PM 62.6 °F 46.4 °F 55% 29.98 in 1.0 mi Calm Calm - N/A   Smoke
8:30 PM 60 °F 47 °F 52% 29.96 in 1 mi Calm Calm - -   Haze
9:00 PM 60.8 °F 46.4 °F 59% 30.01 in 1.0 mi North 3.5 mph - N/A   Smoke
10:00 PM 55.4 °F 46.4 °F 72% 30.01 in 1.0 mi Variable 2.3 mph - N/A   Smoke
11:00 PM 57.2 °F 44.6 °F 63% 30.01 in 1.2 mi Calm Calm - N/A   Smoke
11:30 PM 54 °F 44 °F 59% 29.98 in 1 mi Calm Calm - -   Smoke